轨道通信卫星FM107星 (ORBCOMM FM107)

导读

ORBCOMM FM 107是由ORB所属轨道通信公司开发的低轨通信卫星,于2014年7月14日发射升空。作为ORBCOMM第二代卫星星座的组成部分,它主要为全球用户提供Machine-to-Machine(M2M)物联网、船舶自动识别系统(AIS)等服务,支持资产跟踪、海上监测等场景,延续了ORBCOMM星座覆盖全球、低时延的通信特色,服务工业、物流与海事领域的连接需求,目前仍在轨运行提供服务。

基本信息
目录编号:
40087
目录名称:
ORBCOMM FM 107
国际标识:
2014-040B
轨道中心:
EARTH
卫星名称:
轨道通信卫星FM107星
卫星全名:
轨道通信卫星FM107星 (ORBCOMM FM107)
卫星状态:
在轨 (已飞行4351 天)
发射日期:
2014-07-14 UTC
国别 :
(ORB)
星等 :
--
轨道信息
数据来源 国际轨道数据 AOE轨道数据
星历时间 2026-06-11T21:26:07+0800
1天前
查看轨道信息
2026-06-13T00:00:00+0800
3小时前
查看轨道信息
半长轴 7074.772km 7074.766km
偏心率 0.000025 0.000001
轨道倾角 47.004° 47.003°
近地点辐角 214.227° 134.494°
升交点赤经 118.895° 113.662°
平近点角 145.859° 284.101°
近地点 696.458km 696.621km
远地点 696.812km 696.637km
周期 98.703分钟 98.702分钟
每日圈数 14.58929 14.589308
详细信息
固有亮度:
8
最大亮度:
6.7
平衡模式:
三轴稳定
覆盖范围:
全球
运营商:
轨道通信公司
运营商所在国:
美国
使用方式:
暂无
卫星简介
轨道通信FM(Orbcomm FM)是一系列低地球轨道通信卫星,由美国卫星通信公司 Orbcomm运营。 截至2015年12月,已有63颗此类卫星绕地球运行。该卫星仍在工作。
2D轨道图
3D轨道图
轨道高度分析图
轨道倾角分析图
轨道综合分析图
查看轨道综合分析图